TimeCST,TemperatureF,Dew PointF,Humidity,Sea Level PressureIn,VisibilityMPH,Wind Direction,Wind SpeedMPH,Gust SpeedMPH,PrecipitationIn,Events,Conditions,WindDirDegrees,DateUTC
12:55 AM,6.1,-4.0,63,30.36,10.0,North,5.8,-,N/A,,Clear,10,2013-12-30 06:55:00
1:55 AM,5.0,-4.0,66,30.36,10.0,North,5.8,-,N/A,,Clear,360,2013-12-30 07:55:00
2:55 AM,3.9,-5.1,66,30.37,10.0,North,6.9,-,N/A,,Clear,350,2013-12-30 08:55:00
3:55 AM,3.9,-4.0,70,30.36,10.0,NNE,4.6,-,N/A,,Clear,20,2013-12-30 09:55:00
4:55 AM,3.9,-5.1,66,30.37,10.0,ENE,4.6,-,N/A,,Clear,60,2013-12-30 10:55:00
5:55 AM,3.9,-6.0,64,30.38,10.0,NNE,3.5,-,N/A,,Clear,20,2013-12-30 11:55:00
6:55 AM,5.0,-5.1,63,30.38,10.0,Calm,Calm,-,N/A,,Clear,0,2013-12-30 12:55:00
7:55 AM,5.0,-6.0,61,30.38,10.0,SSE,3.5,-,N/A,,Clear,150,2013-12-30 13:55:00
8:55 AM,7.0,-2.9,64,30.36,10.0,SSE,5.8,-,N/A,,Mostly Cloudy,150,2013-12-30 14:55:00
9:55 AM,9.0,-0.9,64,30.35,10.0,SSE,9.2,-,N/A,,Overcast,150,2013-12-30 15:55:00
10:55 AM,10.9,-2.9,54,30.35,10.0,South,8.1,-,N/A,,Clear,190,2013-12-30 16:55:00
11:55 AM,14.0,-2.0,49,30.30,10.0,SE,6.9,-,N/A,,Clear,130,2013-12-30 17:55:00
12:55 PM,18.0,-0.0,45,30.28,10.0,SSW,5.8,-,N/A,,Overcast,200,2013-12-30 18:55:00
1:55 PM,19.9,1.0,44,30.25,10.0,SSW,8.1,-,N/A,,Overcast,210,2013-12-30 19:55:00
2:55 PM,21.0,3.9,48,30.22,10.0,South,10.4,-,N/A,,Overcast,170,2013-12-30 20:55:00
3:55 PM,21.0,5.0,50,30.21,10.0,South,10.4,-,N/A,,Overcast,190,2013-12-30 21:55:00
4:55 PM,21.0,6.1,53,30.23,10.0,SW,8.1,-,N/A,,Overcast,220,2013-12-30 22:55:00
5:55 PM,21.0,7.0,55,30.23,10.0,SW,5.8,-,N/A,,Overcast,220,2013-12-30 23:55:00
6:55 PM,21.0,10.0,63,30.23,10.0,SW,6.9,-,0.00,,Overcast,230,2013-12-31 00:55:00
7:55 PM,21.0,10.9,65,30.23,10.0,SW,3.5,-,N/A,,Overcast,230,2013-12-31 01:55:00
8:14 PM,21.9,10.9,63,30.17,10.0,SW,5.8,-,N/A,,Overcast,220,2013-12-31 02:14:00
8:33 PM,23.0,10.9,60,30.18,10.0,WSW,5.8,-,N/A,,Overcast,240,2013-12-31 02:33:00
8:55 PM,23.0,10.0,58,30.25,10.0,WSW,5.8,-,N/A,,Overcast,250,2013-12-31 02:55:00
9:55 PM,25.0,10.0,53,30.25,10.0,West,5.8,-,N/A,,Overcast,260,2013-12-31 03:55:00
10:55 PM,27.0,12.0,53,30.26,10.0,West,8.1,-,N/A,,Overcast,260,2013-12-31 04:55:00
11:31 PM,27.0,12.9,56,30.21,10.0,West,10.4,-,N/A,,Overcast,280,2013-12-31 05:31:00
11:55 PM,26.1,14.0,60,30.28,10.0,NW,9.2,-,N/A,,Mostly Cloudy,310,2013-12-31 05:55:00